Date,TemperatureHighF,TemperatureAvgF,TemperatureLowF,DewpointHighF,DewpointAvgF,DewpointLowF,HumidityHigh,HumidityAvg,HumidityLow,PressureMaxIn,PressureMinIn,WindSpeedMaxMPH,WindSpeedAvgMPH,GustSpeedMaxMPH,PrecipitationSumIn
2013-3-1,32.2,28.2,25.8,28.2,25.8,23.4,95,91,84,29.84,29.69,7,0,7,0.00
2013-3-2,33.4,26.8,20.6,28.4,24.2,18.4,95,90,73,29.89,29.70,9,0,9,0.00
2013-3-3,32.6,22.3,16.1,23.3,17.1,13.5,93,81,59,30.11,29.87,14,1,14,0.12
2013-3-4,53.8,34.1,18.0,33.6,20.9,12.9,84,62,29,30.26,29.90,17,2,17,0.01
2013-3-5,48.7,42.1,29.9,47.3,36.9,23.9,98,83,56,29.91,29.11,32,4,33,0.64
2013-3-6,29.9,25.0,21.3,25.0,20.7,17.0,87,84,77,29.36,29.23,27,6,27,0.00
2013-3-7,24.5,23.8,23.5,23.5,22.7,22.3,96,95,95,30.35,30.19,2,0,5,0.00
2013-3-13,26.5,24.7,23.5,18.4,17.1,15.5,75,73,71,30.03,29.99,15,2,15,0.00
2013-3-14,46.9,29.8,17.3,18.8,13.9,7.2,84,56,27,30.32,30.02,13,2,16,0.00
2013-3-15,64.8,47.8,31.5,41.8,31.5,11.2,78,55,30,30.20,29.48,26,4,26,0.00
2013-3-16,69.5,58.9,52.8,46.2,43.0,39.5,64,56,41,29.48,29.05,31,6,31,0.00
2013-3-17,66.5,58.6,53.8,46.8,43.2,38.2,71,58,38,29.24,29.11,23,5,23,0.00
2013-3-18,53.8,47.1,42.2,47.8,44.3,40.2,98,90,72,29.33,29.16,24,4,24,0.69
2013-3-19,55.2,44.4,32.5,44.1,29.5,10.2,95,60,26,29.72,29.29,22,2,25,0.00
2013-3-20,50.4,36.5,26.6,28.2,12.8,5.3,94,40,20,29.81,29.51,27,2,30,0.00
2013-3-21,36.0,25.3,15.1,24.6,15.7,9.8,94,68,43,29.92,29.50,14,2,14,0.11
2013-3-22,48.1,31.6,19.2,30.7,18.9,10.2,74,60,33,30.01,29.86,14,2,15,0.00
2013-3-23,54.9,42.1,34.5,47.3,37.1,28.1,95,83,70,29.87,29.38,14,1,15,0.06
2013-3-24,48.7,41.7,38.3,46.6,40.3,33.4,98,95,81,29.46,28.84,28,3,29,0.83
2013-3-25,38.9,28.2,23.6,34.1,23.1,18.9,93,81,69,29.77,28.95,31,4,31,0.00
2013-3-26,35.1,26.8,22.4,30.5,23.0,19.3,93,86,69,30.22,29.76,15,1,16,0.05
2013-3-27,44.5,31.5,23.5,30.2,23.2,18.0,94,73,49,30.29,30.15,10,2,12,0.01
2013-3-28,51.9,36.9,26.2,26.4,20.9,15.0,78,56,27,30.23,30.09,10,2,12,0.00
2013-3-29,52.8,38.6,31.9,36.9,26.7,17.1,95,65,32,30.18,29.99,14,1,19,0.09
2013-3-30,59.1,46.6,37.7,44.8,38.5,34.2,96,76,43,30.00,29.63,14,2,15,0.12
2013-3-31,54.9,49.4,44.3,49.5,46.4,41.4,98,90,76,29.63,29.26,19,3,20,0.58